Regional Weather Roundup
Issued by NWS Boston, MA

Home | Current Version | Previous Version | Text Only | Print | Product List | Glossary On
Versions: 1 2 3 4 5 6 7 8 9 10 11 12 13 14 15 16 17 18 19 20 21 22 23 24 25 26 27 28 29 30 31 32 33 34 35 36 37 38 39 40 41 42 43 44 45 46 47
000
ASUS41 KBOX 212010
RWRBOX

REGIONAL WEATHER ROUNDUP
NATIONAL WEATHER SERVICE TAUNTON MA
400 PM EDT THU AUG 21 2014

NOTE:  "FAIR" INDICATES FEW OR NO CLOUDS BELOW 12,000 FEET WITH NO
SIGNIFICANT WEATHER AND/OR OBSTRUCTIONS TO VISIBILITY.  THE FOLLOWING
OBSERVATION LOCATIONS DO NOT REPORT PRESENT WEATHER...PROVINCETOWN...
SMITHFIELD...BLOCK ISLAND...KEENE...AND OXFORD.

MAZALL-212100-
EASTERN MASSACHUSETTS

CITY           SKY/WX    TMP DP  RH WIND       PRES   REMARKS
BOSTON         PTSUNNY   70  64  81 E12       30.07S
BEVERLY        PTSUNNY   72  63  73 E7        30.06F
LAWRENCE       CLOUDY    72  61  68 NE9       30.08F
BEDFORD        PTSUNNY   73  61  65 E8        30.04F
BLUE HILL        N/A     73  62  68 E13       30.06F
NORWOOD        MOSUNNY   74  62  66 NE9       30.05S
MARSHFIELD     MOSUNNY   72  66  83 E8        30.08F
PLYMOUTH       MOSUNNY   73  62  68 NE10      30.06F
TAUNTON        MOSUNNY   79  62  56 E7        30.04S
NEW BEDFORD    PTSUNNY   75  63  66 E6        30.04S
$$

MAZALL-212100-
CAPE COD AND THE ISLANDS

CITY           SKY/WX    TMP DP  RH WIND       PRES   REMARKS
FALMOUTH       MOSUNNY   73  63  68 NE9G15    30.05F
HYANNIS        SUNNY     76  60  57 NE10      30.04S
CHATHAM        SUNNY     73  60  63 NE10      30.07S
PROVINCETOWN   MOSUNNY   72  64  78 MISG      30.07S
NANTUCKET      SUNNY     73  59  61 NE14      30.04F
MARTHAS VNYRD  SUNNY     74  61  63 E14       30.04F
$$

MAZALL-212100-
CENTRAL AND WESTERN MASSACHUSETTS

CITY           SKY/WX    TMP DP  RH WIND       PRES   REMARKS
WORCESTER      PTSUNNY   71  58  63 E3        30.08F
FITCHBURG      LGT RAIN  70  62  76 N7        30.08F
ORANGE         CLOUDY    69  61  75 NE3       30.07F
SPRINGFIELD    CLOUDY    73  62  67 NE7       30.03F
WESTFIELD      CLOUDY    74  62  66 E7        30.04F
NORTH ADAMS    CLOUDY    69  62  78 E7        30.04S
PITTSFIELD     CLOUDY    70  65  84 SE6       30.04F
$$

RIZALL-212100-
RHODE ISLAND

CITY           SKY/WX    TMP DP  RH WIND       PRES   REMARKS
PROVIDENCE     PTSUNNY   79  63  57 SE10      30.04F
NEWPORT        SUNNY     73  64  73 SE8       30.05F
BLOCK ISLAND   SUNNY     72  63  73 S6        30.06S
SMITHFIELD     CLOUDY    77  59  53 CALM      30.05F
WESTERLY       SUNNY     74  63  68 SE9       30.06F
$$

CTZALL-212100-
CONNECTICUT

CITY           SKY/WX    TMP DP  RH WIND       PRES   REMARKS
BRADLEY INTL   CLOUDY    78  63  59 NE8       30.02F
HARTFORD       CLOUDY    77  59  53 S7        30.02F
BRIDGEPORT     SUNNY     76  62  62 E10       30.03F
DANBURY        PTSUNNY   76  61  59 S8        30.04F
GROTON         SUNNY     72  63  73 SE9       30.04F
NEW HAVEN      PTSUNNY   77  62  59 E9        30.04F
CHESTER        CLOUDY    73  64  73 SE6       30.06F
MERIDEN        CLOUDY    76  59  55 S10       30.04F
WILLIMANTIC    CLOUDY    77  63  61 S7        30.04F
OXFORD         PTSUNNY   72  54  53 S9        30.07F
$$

MEZ002-015-021-024-NHZ003-005-008-011-012-014-VTZ005-008-212100-
NORTHERN NEW ENGLAND

CITY           SKY/WX    TMP DP  RH WIND       PRES   REMARKS
PORTLAND ME    CLOUDY    71  57  61 NE3       30.09F
BANGOR ME      CLOUDY    75  63  66 S7        30.09R
CONCORD NH     CLOUDY    66  59  78 S6        30.09S
MANCHESTER NH  LGT RAIN  67  59  75 N6        30.07F
NASHUA NH      CLOUDY    68  60  75 N7        30.09S
PORTSMOUTH NH  LGT RAIN  68  56  65 NE3       30.08S
JAFFREY NH     CLOUDY    62  58  86 NE3       30.11F
KEENE NH       CLOUDY    64  54  68 NE3       30.08F
BURLINGTON VT  PTSUNNY   69  58  67 SE9       30.04S
MT. WASHINGTON PTSUNNY   48  39  71 SE12        N/A
$$

NYZ052-076-212100-
EASTERN NEW YORK

CITY           SKY/WX    TMP DP  RH WIND       PRES   REMARKS
ALBANY         LGT RAIN  75  65  70 SE6       29.99F
NEW YORK CITY  PTSUNNY   79  57  46 S14       30.02F
$$

ANZALL-212100-
MARINE OBSERVATIONS

STATION/POSITION TIME  TEMP    WIND        PRES    VSBY  WAVE
                       AIR SEA DIR/SP/G                  HT/PER
                 (UTC) (F)     (DEG/KT/KT) (MB)    (MI)  (FT/S)
BOSTON BUOY      1950   67 67   70/  8/  8 1018.7F         1/ 7
BUZZARDS BAY     1900          160/  9/ 10 1018.5F
NANTUCKET SOUND  1950   67 71   60/ 10/ 12 1017.4F         1/ 5
MASS BAY-STELLWA 1904   67 68   50/  6/  8   N/A    1 7/8  2/ 6
ISLE OF SHOALS   2000   65      70/  7/  7 1018.0F
S OF BLOCK IS    1908      69                N/A           3/ 7
$$

......................KEY.........................
  SKY/WX - SKY CONDITION/PRESENT WEATHER
  TMP    - TEMPERATURE IN FAHRENHEIT
  DWPT   - DEWPOINT IN FAHRENHEIT
  RH     - RELATIVE HUMIDITY IN PERCENT
  WIND   - DIRECTION AND SPEED IN MPH
  PRES   - MEAN SEA LEVEL PRESSURE IN INCHES OF HG
  WCI    - WIND CHILL INDEX
  VSB    - VISIBILITY IN MILES
  HX     - HEAT INDEX
  TC     - TEMPERATURE IN CELSIUS
  VRB    - VARIABLE WIND DIRECTION
  N/A    - NOT AVAILABLE



USA.gov is the U.S. government's official web portal to all federal, state and local government web resources and services.